Location: Crescent
(42.8242°N, 73.7329°W)
Time: 06:04:45
(UTC+00:00)

Tiros 1 - Pass Details

Date: 23 February 2026
Orbit: 618 x 649 km, 48.4° (Epoch: 5 March)

Event Time Altitude Azimuth Distance (km) Brightness Sun altitude
Rises 09:55:19 0° 193° (SSW) 2,924 - -20.0°
Exits shadow 09:55:47 - 191° (S) 2,773 10.2 -19.9°
Reaches altitude 10° 09:58:22 10° 173° (S) 2,014 9.7 -19.4°
Maximum altitude 10:01:17 17° 134° (SE) 1,619 9.7 -18.9°
Drops below altitude 10° 10:04:11 10° 95° (E) 2,008 10.9 -18.3°
Sets 10:07:13 0° 74° (ENE) 2,913 12.1 -17.8°
